This is the latest recevied weather packets stored in our database for station/object SR9SMR. If no packets are shown the sender has not sent any weather packets the latest 1 day(s).
| Time | Temp. | Humidity | Pressure | Rain* | Wind** | Luminosity | Snow |
|---|---|---|---|---|---|---|---|
| 1778017212 | 13.33° C | 100% | 893.2 hPa | - | - | - | - |
| 1778016847 | 13.33° C | 100% | 894.4 hPa | - | - | - | - |
| 1778016629 | 13.33° C | 100% | 891.4 hPa | - | - | - | - |
| 1778016382 | 13.33° C | 100% | 894.6 hPa | - | - | - | - |
| 1778016016 | 12.78° C | 100% | 896.9 hPa | - | - | - | - |
| 1778015871 | 13.33° C | 100% | 897.1 hPa | - | - | - | - |
| 1778015645 | 13.33° C | 100% | 895.6 hPa | - | - | - | - |
| 1778015265 | 13.33° C | 100% | 896.6 hPa | - | - | - | - |
| 1778014923 | 13.33° C | 100% | 892.7 hPa | - | - | - | - |
| 1778014725 | 13.33° C | 100% | 893.7 hPa | - | - | - | - |
| 1778014602 | 13.33° C | 100% | 899.1 hPa | - | - | - | - |
| 1778014416 | 13.33° C | 100% | 892.9 hPa | - | - | - | - |
| 1778014229 | 13.33° C | 100% | 893.4 hPa | - | - | - | - |
| 1778014049 | 13.89° C | 100% | 893 hPa | - | - | - | - |
| 1778013928 | 13.33° C | 100% | 892.9 hPa | - | - | - | - |
| 1778013543 | 13.89° C | 100% | 897 hPa | - | - | - | - |
| 1778012986 | 13.89° C | 100% | 894.6 hPa | - | - | - | - |
| 1778012790 | 13.89° C | 100% | 892.8 hPa | - | - | - | - |
| 1778012727 | 13.89° C | 100% | 892.9 hPa | - | - | - | - |
| 1778012604 | 13.89° C | 100% | 896.3 hPa | - | - | - | - |
| 1778012357 | 13.89° C | 100% | 897.7 hPa | - | - | - | - |
| 1778011731 | 14.44° C | 100% | 893.7 hPa | - | - | - | - |
| 1778011297 | 14.44° C | 100% | 894 hPa | - | - | - | - |
| 1778010846 | 14.44° C | 100% | 895.5 hPa | - | - | - | - |
| 1778010446 | 15° C | 100% | 894.5 hPa | - | - | - | - |
* Rain since midnight (hover to see other rain measurements)
** Current wind speed in m/s (hover to see current wind gust speed)